TimeAKST,TemperatureF,Dew PointF,Humidity,Sea Level PressureIn,VisibilityMPH,Wind Direction,Wind SpeedMPH,Gust SpeedMPH,PrecipitationIn,Events,Conditions,WindDirDegrees,DateUTC
12:56 AM,35.1,33.1,92,28.85,10.0,WSW,3.5,-,0.00,,Overcast,250,2012-12-30 09:56:00
1:21 AM,37.4,32.0,81,28.83,10.0,North,8.1,-,N/A,,Overcast,360,2012-12-30 10:21:00
1:56 AM,37.0,32.0,82,28.84,9.0,NE,11.5,17.3,0.00,,Overcast,40,2012-12-30 10:56:00
2:08 AM,37.4,32.0,81,28.83,10.0,NE,10.4,-,0.00,,Overcast,40,2012-12-30 11:08:00
2:28 AM,37.4,30.2,75,28.83,10.0,NE,10.4,18.4,0.00,,Overcast,40,2012-12-30 11:28:00
2:48 AM,37.4,30.2,75,28.82,10.0,North,8.1,23.0,0.00,,Overcast,10,2012-12-30 11:48:00
2:56 AM,37.0,30.9,79,28.84,10.0,NNE,12.7,17.3,0.00,,Overcast,30,2012-12-30 11:56:00
3:10 AM,37.4,30.2,75,28.82,10.0,North,8.1,17.3,N/A,,Overcast,360,2012-12-30 12:10:00
3:25 AM,35.6,32.0,87,28.82,10.0,North,12.7,-,0.00,Rain,Light Rain,350,2012-12-30 12:25:00
3:56 AM,36.0,32.0,86,28.84,10.0,North,11.5,21.9,0.00,Rain,Light Rain,350,2012-12-30 12:56:00
4:56 AM,36.0,32.0,86,28.84,7.0,NNW,10.4,-,0.01,,Overcast,340,2012-12-30 13:56:00
5:25 AM,35.6,32.0,87,28.82,10.0,North,12.7,-,0.01,Rain,Light Rain,350,2012-12-30 14:25:00
5:56 AM,35.1,32.0,89,28.83,10.0,North,11.5,-,0.01,Rain,Light Rain,350,2012-12-30 14:56:00
6:36 AM,35.6,32.0,87,28.82,10.0,NNW,13.8,-,0.00,,Overcast,340,2012-12-30 15:36:00
6:56 AM,35.1,30.9,85,28.84,10.0,NNW,9.2,-,0.00,Rain-Snow,Light Snow,340,2012-12-30 15:56:00
7:56 AM,34.0,30.0,85,28.85,10.0,North,11.5,-,0.00,Rain-Snow,Light Snow,350,2012-12-30 16:56:00
8:56 AM,34.0,30.9,89,28.86,6.0,WNW,6.9,-,0.00,Rain-Snow,Light Rain,290,2012-12-30 17:56:00
9:16 AM,33.8,30.2,87,28.84,8.0,WNW,6.9,-,0.00,Rain,Light Rain,290,2012-12-30 18:16:00
9:33 AM,33.8,30.2,87,28.85,10.0,WNW,5.8,-,0.00,Rain-Snow,Light Rain,290,2012-12-30 18:33:00
9:51 AM,33.8,30.2,87,28.86,3.0,WNW,5.8,-,0.00,Rain-Snow,Light Rain,300,2012-12-30 18:51:00
9:56 AM,34.0,30.9,89,28.87,3.0,WNW,5.8,-,0.00,Rain-Snow,Light Rain,300,2012-12-30 18:56:00
10:21 AM,33.8,30.2,87,28.87,2.0,NW,8.1,-,0.01,Snow,Light Snow,310,2012-12-30 19:21:00
10:32 AM,33.8,30.2,87,28.87,3.0,NNW,6.9,-,0.01,Snow,Light Snow,330,2012-12-30 19:32:00
10:56 AM,34.0,30.9,89,28.90,4.0,NNW,9.2,-,0.01,Snow,Light Snow,330,2012-12-30 19:56:00
11:11 AM,33.8,30.2,87,28.89,7.0,NW,11.5,-,0.01,Snow,Light Snow,310,2012-12-30 20:11:00
11:32 AM,33.8,30.2,87,28.89,2.0,NW,9.2,-,0.01,Snow,Light Snow,320,2012-12-30 20:32:00
11:56 AM,34.0,30.9,89,28.91,4.0,WNW,6.9,-,0.01,Snow,Light Snow,290,2012-12-30 20:56:00
11:58 AM,33.8,30.2,87,28.90,5.0,WNW,8.1,-,0.00,Snow,Light Snow,290,2012-12-30 20:58:00
12:56 PM,35.1,30.9,85,28.93,5.0,West,9.2,-,0.00,Rain,Light Rain,280,2012-12-30 21:56:00
1:25 PM,35.6,30.2,81,28.92,2.0,West,9.2,-,0.00,Snow,Light Snow,280,2012-12-30 22:25:00
1:33 PM,33.8,30.2,87,28.92,2.0,West,9.2,-,0.00,Snow,Light Snow,270,2012-12-30 22:33:00
1:39 PM,33.8,30.2,87,28.92,5.0,West,9.2,-,0.00,Snow,Light Snow,270,2012-12-30 22:39:00
1:54 PM,33.8,30.2,87,28.92,7.0,WSW,6.9,-,0.00,,Overcast,250,2012-12-30 22:54:00
1:56 PM,34.0,30.9,89,28.93,7.0,WSW,5.8,-,0.00,,Overcast,250,2012-12-30 22:56:00
2:13 PM,35.6,30.2,81,28.92,3.0,NW,6.9,-,0.00,Snow,Light Snow,310,2012-12-30 23:13:00
2:20 PM,33.8,30.2,87,28.92,7.0,WNW,4.6,-,0.00,Snow,Light Snow,300,2012-12-30 23:20:00
2:56 PM,35.1,30.0,82,28.94,10.0,Variable,5.8,-,0.00,,Overcast,0,2012-12-30 23:56:00
3:56 PM,35.1,30.0,82,28.95,10.0,Calm,Calm,-,0.00,,Overcast,0,2012-12-31 00:56:00
4:56 PM,36.0,28.9,76,28.97,10.0,West,8.1,-,0.00,Rain,Light Rain,260,2012-12-31 01:56:00
5:56 PM,36.0,27.0,70,28.99,10.0,West,10.4,-,0.00,,Mostly Cloudy,280,2012-12-31 02:56:00
6:56 PM,35.1,28.9,78,29.00,10.0,WSW,6.9,-,N/A,,Mostly Cloudy,250,2012-12-31 03:56:00
8:56 PM,36.0,26.1,67,29.04,10.0,WSW,4.6,-,N/A,,Mostly Cloudy,240,2012-12-31 05:56:00
9:56 PM,35.1,28.0,76,29.05,10.0,West,4.6,-,N/A,,Overcast,270,2012-12-31 06:56:00
10:56 PM,35.1,28.0,76,29.06,10.0,West,6.9,-,N/A,,Overcast,270,2012-12-31 07:56:00
11:56 PM,35.1,28.0,76,29.08,10.0,WNW,3.5,-,N/A,,Overcast,290,2012-12-31 08:56:00